Wind_Speed
12 13 15 16 15 12 8 11 16 10 9 13 16 16 15 16 17 16 13 11 10 12 13 13 12 12 13 13 14 14 13 13 13 13 13 12 12 11 10 10 9 8 7 7 7 6 6 5 6
15 15 17 17 16 13 11 16 16 13 13 15 17 17 18 19 17 16 15 13 11 12 13 13 13 13 13 14 14 15 14 14 14 13 13 12 12 11 10 9 8 8 7 7 6 6 6 5 6
19 18 19 19 17 15 15 20 18 15 12 15 17 18 21 20 17 15 15 14 12 13 13 14 13 14 14 14 15 15 15 14 14 13 13 12 12 11 10 9 8 8 7 7 6 5 5 6 6
23 22 22 20 17 14 16 22 19 15 11 15 16 18 19 18 18 17 15 14 13 13 13 14 14 14 15 15 15 15 15 14 14 13 12 12 11 10 9 9 8 8 7 6 6 6 6 6 6
26 25 24 21 17 16 18 22 20 15 11 12 14 19 19 15 15 15 15 14 13 12 13 13 14 14 15 15 15 15 14 14 13 12 12 11 11 10 9 9 8 8 7 7 6 6 6 6 6
29 28 26 22 18 17 20 23 22 17 14 14 16 19 21 17 15 14 14 13 12 11 12 12 13 14 14 14 14 14 13 13 12 12 11 11 10 10 9 9 8 8 7 7 7 7 6 6 7
30 30 28 24 20 20 21 25 24 22 19 19 20 21 24 20 16 14 13 12 11 11 12 12 13 13 13 13 13 13 12 12 12 12 11 11 11 10 9 9 8 8 8 8 8 7 7 7 8
31 32 31 27 24 23 22 25 25 27 24 23 25 24 26 19 16 15 14 13 12 11 11 11 12 12 12 13 13 13 12 12 12 12 12 11 10 10 9 9 9 9 9 9 8 8 8 8 9
32 34 32 28 24 23 23 26 27 28 27 24 26 28 27 20 17 13 13 14 13 11 11 11 12 12 12 12 13 13 13 13 13 12 12 11 10 10 9 9 10 9 9 10 10 10 10 10 10
32 33 31 28 25 24 25 27 26 25 26 25 26 30 30 23 18 15 15 15 14 13 12 11 12 12 11 12 13 13 13 13 13 13 12 11 10 10 10 10 10 10 11 11 11 11 11 12 12
30 32 31 29 28 29 29 29 27 25 25 25 26 27 28 22 19 18 18 17 15 14 13 12 12 13 12 12 13 13 13 13 13 13 12 11 11 11 11 11 12 12 12 12 13 13 14 14 14
28 30 32 32 33 34 34 32 28 27 24 24 26 26 26 24 22 21 20 18 16 16 15 13 12 13 12 12 12 12 13 13 13 13 12 12 12 12 12 12 13 14 14 15 15 16 16 17 17
26 28 31 34 35 36 36 34 31 30 28 26 27 28 28 24 22 23 22 21 19 16 15 14 14 13 13 13 13 13 14 14 13 13 13 13 13 13 13 14 15 16 16 17 18 19 20 20 21
25 27 30 32 33 35 34 35 34 32 30 29 28 30 29 26 24 24 24 24 20 16 16 15 15 14 14 14 15 15 14 14 13 14 14 15 14 14 15 16 17 19 19 20 21 22 23 23 24
24 26 28 29 30 30 31 32 32 31 31 30 29 29 29 29 28 28 26 24 21 18 16 16 15 15 16 16 16 16 16 15 15 16 16 16 17 17 18 19 20 21 22 22 23 25 26 26 27
21 22 23 22 24 26 28 28 27 28 29 30 29 30 29 30 30 29 29 27 24 21 18 17 17 17 17 16 16 16 17 16 16 17 18 19 19 20 21 22 23 23 24 25 26 27 28 28 29
16 16 16 14 18 22 25 23 20 22 26 28 27 27 26 27 29 30 30 27 25 23 20 19 19 19 18 17 17 18 18 18 18 19 19 20 21 22 23 24 25 27 27 28 29 30 30 31 31
8 10 11 11 16 19 21 21 20 25 25 25 26 27 27 29 29 31 29 27 25 24 22 22 21 20 19 18 19 19 19 19 20 21 21 22 22 24 25 27 29 30 31 31 32 33 34 34 34
13 14 14 14 17 18 20 21 23 24 24 26 27 29 29 28 30 30 30 26 26 25 24 24 22 21 21 20 20 21 21 22 23 23 24 25 25 27 28 29 31 32 34 34 34 35 34 34 34
15 15 15 17 19 18 20 22 25 25 26 27 29 29 29 28 30 29 28 25 25 25 25 25 25 24 23 22 23 23 24 25 26 26 27 27 28 29 30 30 31 33 34 35 37 36 35 34 34
15 15 16 17 18 19 20 24 26 25 27 28 29 28 27 28 27 27 27 27 25 26 26 27 27 26 25 25 25 25 26 27 28 28 29 30 30 30 31 31 32 33 34 35 36 35 35 33 32
14 15 16 18 18 19 20 22 24 27 29 30 29 29 27 27 28 28 27 29 27 27 27 28 29 29 27 26 27 28 28 29 29 30 31 32 31 32 32 32 32 33 33 33 33 34 34 33 32
13 15 17 17 19 19 20 22 24 27 29 30 30 29 28 27 27 27 28 28 28 28 29 29 29 30 28 28 28 29 30 30 30 31 32 33 34 34 34 33 33 33 33 32 33 33 33 33 33
14 15 17 17 17 21 20 22 25 26 25 26 26 28 28 28 27 28 29 29 30 30 32 31 31 31 32 31 31 31 32 32 32 33 33 34 34 34 34 34 35 35 34 34 35 35 35 34 34
13 13 13 13 16 18 18 22 28 27 24 23 24 26 28 28 28 29 29 30 31 32 32 32 33 33 34 34 33 33 34 34 35 35 36 36 35 36 36 36 36 37 37 37 37 36 37 37 37
13 14 14 15 16 17 20 27 30 28 23 22 22 24 26 28 28 28 29 29 31 32 33 33 33 33 34 35 35 36 36 37 37 37 38 38 37 37 38 38 37 38 38 38 38 38 38 38 40
11 14 17 17 16 18 22 27 30 28 26 24 23 24 25 27 28 28 28 29 29 30 31 31 32 33 34 34 35 36 37 38 38 38 39 39 39 40 40 40 40 39 40 39 39 38 39 40 42
10 14 16 16 17 17 19 24 26 28 25 25 24 25 25 26 28 28 28 28 29 29 30 31 32 33 34 35 37 38 38 39 39 40 40 41 40 41 41 41 40 40 40 40 40 41 41 43 44
10 12 14 14 17 17 16 21 22 24 22 23 23 23 24 25 26 28 28 28 29 30 30 31 31 32 34 35 37 38 39 40 41 41 41 41 41 41 41 40 40 40 40 41 42 43 43 45 46
8 11 13 14 15 16 18 20 17 17 19 20 22 23 23 24 25 27 28 28 29 30 31 32 33 33 34 35 36 38 39 39 40 40 41 41 41 42 41 41 40 40 41 41 42 43 44 46 46
Wind_Direction
251 245 240 237 235 228 229 258 264 247 243 251 256 256 253 253 254 256 262 263 270 266 260 254 251 247 241 236 233 234 236 240 244 247 249 250 250 250 250 251 253 254 254 256 260 265 270 275 280
247 244 239 236 231 224 236 252 254 250 249 261 263 260 256 258 264 264 271 273 276 270 261 255 252 249 244 239 235 235 236 240 244 247 249 250 250 251 251 252 253 253 255 259 264 268 274 279 283
243 241 240 237 230 221 233 246 239 235 250 262 265 262 258 260 264 266 271 271 270 270 264 257 254 249 246 241 238 236 236 239 242 246 249 249 249 249 250 250 250 254 258 262 267 274 281 286 290
241 239 239 239 234 222 237 259 252 234 235 255 263 265 263 260 262 265 265 267 266 267 265 259 255 249 245 242 240 237 237 239 241 244 245 246 247 248 247 246 249 254 260 265 271 279 286 293 296
240 239 240 239 232 223 233 257 260 251 236 250 263 268 261 257 260 264 264 265 268 268 264 258 253 248 245 243 240 240 239 239 241 241 242 243 243 243 244 246 252 257 261 267 273 281 286 293 300
240 239 239 238 231 228 234 244 252 254 258 258 260 264 265 261 263 266 266 266 268 270 264 256 254 248 244 242 240 240 239 238 238 238 239 240 240 241 244 249 255 260 266 271 276 282 286 293 299
240 238 237 236 230 231 236 245 247 248 245 253 253 253 261 257 251 257 263 270 273 270 263 256 255 250 245 242 239 238 238 237 237 238 239 240 242 243 246 252 258 262 267 272 276 281 287 293 298
239 237 235 232 230 233 234 238 242 246 248 247 251 248 251 243 245 249 259 268 272 270 268 261 255 250 247 243 238 236 236 236 236 237 240 242 244 246 248 254 260 264 268 272 278 284 289 295 299
238 237 235 231 231 236 240 242 236 240 244 245 249 249 250 250 246 244 258 267 271 268 268 264 256 249 246 243 240 237 236 236 236 238 240 243 246 248 252 257 261 264 268 274 280 286 290 294 298
237 237 235 230 227 232 236 241 243 241 244 244 247 252 255 254 251 245 255 261 264 267 266 262 257 251 247 246 243 240 239 238 238 240 242 245 247 250 254 258 261 266 271 275 281 288 289 292 296
238 236 232 226 225 228 229 231 235 235 243 244 244 246 251 253 251 251 254 255 258 262 263 263 260 254 249 247 245 243 242 241 242 244 246 247 250 253 256 260 264 269 274 278 282 286 287 290 292
239 235 232 227 224 226 229 230 231 230 232 238 242 242 241 242 243 245 249 251 249 257 262 263 260 257 253 250 248 245 243 243 244 247 250 251 254 258 262 266 269 272 275 278 280 282 285 288 290
240 237 233 231 229 230 231 230 231 233 231 232 235 239 242 240 241 242 245 246 249 247 254 260 262 263 258 254 251 249 248 248 250 253 255 257 261 265 270 273 276 277 278 279 281 282 284 286 288
238 238 235 234 234 234 236 234 233 234 234 235 237 237 240 240 242 243 244 246 245 241 250 257 261 264 262 259 259 258 256 255 255 255 258 262 267 272 275 277 279 281 281 282 283 284 284 286 287
240 239 238 236 235 236 237 236 237 235 234 235 236 238 238 238 239 243 242 242 240 239 249 253 259 263 264 263 263 262 256 257 259 261 264 268 273 275 276 279 280 282 283 284 284 285 285 283 283
244 242 241 237 238 237 236 236 237 236 235 235 234 236 239 236 236 241 243 243 243 240 244 254 258 260 265 265 266 265 263 262 264 266 268 273 276 278 279 281 280 281 282 283 282 283 285 284 283
245 247 244 239 240 237 235 231 229 234 236 235 235 235 237 237 238 242 245 241 245 244 244 252 256 259 264 266 268 268 266 266 268 270 274 278 280 279 281 283 284 284 283 283 282 283 285 284 283
244 255 243 232 236 232 231 223 217 226 230 232 231 231 236 237 240 240 240 241 246 246 246 249 255 258 262 267 269 266 266 269 273 274 277 278 279 281 285 286 285 286 285 285 285 285 286 286 285
220 225 224 220 227 226 223 221 222 227 228 227 225 228 234 238 240 240 240 239 241 242 245 249 255 257 260 263 265 265 267 270 274 275 276 276 281 283 285 286 286 287 286 286 288 289 289 287 287
230 224 220 220 221 219 222 225 226 225 227 229 227 227 231 234 236 237 240 240 240 240 244 249 253 254 256 259 263 264 266 269 273 277 278 280 285 287 290 293 294 294 291 289 287 290 290 288 288
229 222 223 225 226 222 226 231 230 230 233 236 238 237 234 234 235 237 241 245 244 245 244 249 252 255 256 258 261 265 268 271 273 278 281 284 285 289 292 294 299 298 295 293 290 288 290 289 288
233 226 227 228 228 229 228 236 237 236 237 237 239 239 240 240 241 244 249 249 251 251 253 254 255 258 259 260 261 265 269 272 275 279 282 287 289 293 297 295 298 299 297 296 294 290 289 289 289
232 229 230 229 227 228 229 233 240 237 238 238 241 241 241 244 246 248 250 251 253 255 257 258 259 262 263 263 265 265 268 272 277 281 284 286 289 292 295 295 297 299 297 294 294 294 292 292 291
229 232 233 228 227 232 233 234 244 245 241 239 240 242 242 244 247 249 251 251 253 256 257 259 261 263 267 268 269 270 272 275 280 283 287 289 292 294 296 296 297 298 296 294 293 292 292 292 291
224 224 228 231 232 236 239 241 244 249 249 243 241 243 243 244 247 249 252 252 254 258 257 259 261 263 265 268 270 272 276 280 282 284 287 289 291 294 296 297 296 295 294 293 292 292 292 290 290
223 212 214 225 228 230 228 236 244 250 254 251 248 247 245 244 248 249 250 252 254 255 257 259 259 261 263 267 269 271 274 278 281 284 285 287 290 292 294 295 295 294 293 293 292 290 289 289 290
222 212 219 233 237 232 225 233 242 248 252 255 254 252 249 247 249 250 251 252 253 255 257 257 260 262 263 265 267 270 274 277 280 284 286 288 289 290 291 292 291 291 291 292 292 290 289 288 289
213 215 230 231 245 245 240 242 243 240 244 249 253 252 251 249 250 251 251 253 254 256 258 259 261 263 264 265 267 270 273 275 279 281 283 285 287 289 290 291 290 290 291 290 290 291 289 290 290
211 210 226 235 242 247 257 256 254 243 237 244 248 247 247 247 248 248 250 252 254 255 257 259 262 264 266 267 269 271 274 276 278 280 282 284 286 287 289 289 290 291 290 289 289 290 289 289 289
211 224 232 235 249 260 275 279 272 263 246 245 246 248 247 247 248 250 252 254 255 257 259 260 263 265 267 268 270 272 274 276 279 281 282 283 285 286 287 287 289 289 289 289 289 288 289 289 290
Height
5882 5883 5884 5886 5888 5890 5892 5893 5891 5890 5889 5891 5893 5893 5892 5891 5892 5894 5890 5890 5892 5893 5893 5894 5894 5894 5895 5895 5896 5896 5897 5898 5899 5899 5900 5900 5901 5901 5901 5901 5901 5901 5901 5901 5901 5901 5901 5901 5901
5880 5880 5882 5883 5885 5887 5890 5890 5888 5888 5887 5889 5891 5892 5890 5889 5888 5890 5889 5890 5892 5891 5892 5892 5892 5893 5893 5893 5894 5895 5896 5896 5897 5898 5898 5899 5900 5900 5900 5900 5901 5901 5901 5901 5901 5901 5901 5901 5900
5876 5877 5878 5880 5882 5884 5887 5885 5886 5884 5886 5888 5889 5890 5888 5888 5888 5888 5889 5889 5890 5890 5890 5890 5890 5891 5891 5892 5892 5893 5894 5895 5896 5896 5897 5898 5898 5899 5899 5899 5900 5900 5900 5900 5900 5900 5900 5900 5900
5872 5874 5875 5877 5879 5882 5884 5882 5882 5881 5884 5886 5887 5887 5886 5886 5887 5887 5888 5888 5889 5889 5888 5888 5888 5889 5889 5890 5891 5891 5892 5893 5894 5895 5896 5897 5897 5898 5898 5898 5899 5898 5899 5899 5899 5899 5899 5899 5899
5867 5869 5871 5873 5876 5879 5881 5880 5879 5880 5880 5883 5885 5883 5881 5882 5885 5886 5886 5886 5887 5887 5886 5886 5887 5887 5888 5888 5889 5890 5890 5891 5893 5893 5894 5895 5896 5897 5897 5897 5897 5897 5897 5898 5898 5898 5898 5898 5898
5862 5865 5867 5870 5873 5876 5879 5877 5877 5878 5879 5880 5883 5881 5878 5881 5882 5883 5884 5884 5885 5885 5885 5885 5885 5885 5886 5886 5887 5888 5889 5890 5891 5892 5893 5894 5895 5896 5896 5896 5896 5896 5896 5896 5896 5896 5897 5897 5897
5857 5860 5862 5866 5869 5873 5877 5876 5875 5876 5878 5880 5880 5879 5876 5877 5878 5880 5881 5882 5883 5883 5883 5883 5883 5883 5884 5885 5885 5887 5888 5889 5890 5891 5892 5893 5894 5894 5895 5895 5895 5895 5895 5895 5895 5895 5895 5895 5895
5850 5854 5856 5860 5864 5869 5872 5873 5872 5874 5874 5876 5877 5876 5872 5872 5875 5877 5879 5880 5880 5881 5881 5881 5881 5882 5882 5883 5884 5885 5886 5887 5888 5889 5891 5892 5893 5893 5893 5893 5894 5894 5894 5894 5894 5894 5894 5894 5894
5843 5847 5851 5856 5860 5865 5867 5867 5867 5869 5871 5872 5873 5871 5868 5869 5873 5874 5876 5877 5878 5879 5879 5879 5880 5880 5881 5882 5883 5884 5885 5886 5887 5888 5889 5890 5891 5892 5892 5892 5892 5892 5892 5892 5892 5893 5893 5893 5892
5837 5841 5846 5851 5855 5859 5861 5862 5862 5863 5865 5867 5868 5867 5867 5869 5870 5871 5873 5875 5875 5876 5877 5877 5878 5878 5879 5880 5881 5882 5883 5884 5885 5886 5887 5888 5889 5890 5890 5891 5891 5891 5891 5891 5891 5891 5891 5891 5890
5831 5835 5839 5843 5847 5850 5852 5855 5856 5858 5862 5864 5864 5864 5863 5865 5868 5870 5871 5871 5872 5873 5873 5875 5876 5876 5877 5879 5879 5881 5882 5883 5884 5885 5886 5887 5888 5888 5889 5889 5889 5889 5889 5889 5889 5889 5889 5889 5888
5825 5828 5832 5835 5838 5842 5845 5848 5851 5852 5858 5859 5861 5861 5860 5862 5864 5866 5868 5869 5868 5869 5870 5872 5873 5874 5875 5877 5878 5879 5880 5881 5882 5883 5884 5885 5886 5886 5887 5887 5887 5887 5887 5887 5887 5886 5886 5886 5886
5819 5822 5825 5828 5831 5835 5838 5842 5846 5848 5851 5854 5856 5857 5857 5859 5860 5862 5863 5865 5863 5864 5867 5869 5871 5872 5873 5875 5876 5877 5878 5879 5881 5882 5882 5883 5884 5884 5885 5885 5885 5885 5885 5885 5884 5884 5883 5883 5882
5814 5816 5819 5822 5825 5829 5833 5837 5840 5844 5847 5849 5851 5853 5855 5857 5858 5857 5859 5859 5859 5861 5865 5867 5869 5870 5871 5872 5873 5874 5876 5877 5879 5878 5879 5881 5881 5882 5882 5882 5882 5882 5882 5881 5881 5880 5880 5879 5878
5808 5810 5813 5817 5820 5824 5828 5831 5835 5839 5842 5844 5846 5849 5851 5853 5854 5854 5854 5854 5855 5858 5860 5863 5865 5867 5868 5869 5870 5872 5874 5875 5876 5877 5877 5878 5879 5879 5879 5879 5879 5878 5878 5877 5877 5876 5875 5875 5874
5804 5806 5809 5813 5816 5819 5824 5827 5830 5833 5836 5839 5841 5843 5845 5847 5849 5849 5849 5850 5853 5855 5858 5860 5862 5864 5865 5866 5867 5869 5870 5872 5873 5874 5875 5875 5875 5875 5875 5875 5874 5874 5873 5873 5872 5871 5869 5869 5868
5801 5804 5807 5811 5813 5815 5819 5822 5825 5828 5831 5833 5836 5838 5839 5842 5843 5843 5844 5846 5849 5852 5855 5857 5859 5860 5861 5863 5864 5866 5867 5868 5869 5870 5871 5871 5871 5871 5871 5871 5870 5870 5869 5868 5866 5865 5864 5863 5861
5801 5804 5807 5810 5811 5813 5815 5818 5821 5823 5826 5829 5832 5834 5836 5837 5838 5839 5839 5840 5845 5848 5851 5853 5854 5856 5858 5859 5861 5862 5863 5864 5865 5866 5867 5867 5867 5866 5866 5866 5865 5864 5863 5862 5861 5859 5857 5856 5854
5797 5800 5804 5808 5808 5809 5811 5814 5816 5819 5822 5824 5825 5827 5830 5832 5833 5834 5833 5837 5839 5843 5846 5848 5850 5851 5853 5855 5857 5858 5859 5860 5861 5861 5862 5862 5862 5861 5860 5860 5859 5858 5857 5855 5853 5851 5850 5849 5847
5793 5796 5800 5802 5802 5805 5808 5809 5811 5814 5816 5818 5818 5821 5824 5827 5828 5829 5829 5831 5834 5837 5841 5843 5845 5847 5848 5850 5852 5853 5855 5855 5856 5856 5856 5856 5856 5855 5855 5854 5853 5851 5850 5848 5846 5844 5842 5841 5840
5789 5792 5796 5798 5799 5801 5804 5805 5807 5809 5812 5814 5815 5816 5819 5822 5823 5823 5825 5828 5830 5832 5835 5838 5840 5841 5843 5845 5846 5848 5849 5849 5850 5851 5851 5850 5850 5849 5848 5847 5845 5844 5843 5841 5839 5837 5835 5834 5832
5786 5789 5791 5793 5795 5798 5801 5802 5803 5805 5807 5809 5811 5813 5816 5818 5820 5820 5822 5825 5827 5829 5831 5833 5835 5836 5838 5839 5840 5841 5842 5843 5844 5844 5844 5844 5843 5842 5841 5840 5839 5837 5835 5833 5831 5830 5828 5827 5825
5783 5785 5787 5789 5791 5794 5796 5798 5797 5798 5801 5804 5806 5810 5812 5814 5815 5817 5819 5821 5822 5825 5826 5829 5830 5831 5832 5833 5834 5835 5836 5837 5837 5837 5837 5837 5837 5836 5835 5833 5832 5830 5828 5826 5824 5822 5821 5819 5818
5778 5781 5782 5785 5788 5790 5791 5794 5792 5791 5794 5798 5801 5804 5806 5809 5811 5813 5814 5816 5817 5820 5822 5823 5824 5825 5826 5827 5828 5828 5829 5830 5830 5830 5830 5830 5830 5829 5828 5827 5825 5823 5821 5819 5817 5815 5813 5812 5810
5775 5778 5781 5783 5785 5788 5791 5791 5787 5787 5790 5793 5796 5799 5801 5804 5807 5809 5810 5811 5813 5814 5815 5817 5818 5819 5820 5821 5821 5821 5822 5823 5823 5823 5823 5823 5822 5821 5820 5819 5817 5815 5813 5811 5809 5807 5805 5803 5801
5772 5776 5779 5782 5783 5786 5787 5785 5783 5784 5787 5790 5792 5795 5797 5799 5802 5803 5805 5806 5807 5809 5810 5811 5812 5813 5814 5815 5815 5815 5815 5815 5815 5815 5815 5814 5814 5813 5812 5811 5809 5807 5805 5803 5801 5799 5797 5794 5791
5770 5773 5776 5776 5776 5778 5779 5779 5779 5780 5783 5786 5788 5790 5792 5794 5796 5797 5799 5800 5801 5802 5804 5805 5805 5806 5807 5808 5808 5808 5808 5808 5807 5807 5806 5806 5805 5804 5803 5802 5800 5797 5795 5793 5791 5789 5787 5784 5781
5768 5771 5772 5774 5774 5774 5775 5774 5773 5773 5777 5780 5782 5784 5786 5788 5790 5791 5793 5794 5795 5796 5797 5798 5799 5799 5799 5800 5800 5801 5800 5800 5799 5799 5798 5797 5796 5794 5793 5791 5790 5787 5785 5783 5781 5779 5776 5774 5771
5766 5768 5768 5770 5771 5770 5770 5771 5766 5767 5770 5773 5776 5777 5780 5782 5783 5785 5786 5787 5788 5789 5790 5790 5791 5791 5792 5792 5793 5793 5792 5792 5791 5789 5788 5788 5787 5785 5783 5782 5780 5778 5776 5773 5771 5769 5766 5763 5760
5764 5766 5768 5769 5768 5767 5766 5765 5760 5762 5764 5767 5770 5772 5774 5776 5777 5778 5779 5780 5781 5782 5782 5783 5783 5784 5784 5784 5784 5784 5783 5783 5782 5781 5779 5778 5777 5775 5773 5771 5770 5768 5766 5764 5761 5759 5756 5753 5749